Regional Weather Roundup
Issued by NWS

Home | Current Version | Previous Version | Graphics & Text | Print | Product List | Glossary On
Versions: 1 2 3 4 5 6 7 8 9 10 11 12 13 14 15 16 17 18 19 20 21 22 23 24 25 26 27 28 29 30 31 32 33 34 35 36 37 38 39 40 41 42 43 44 45 46 47 48 49 50
000
ASUS43 KIND 300409
RWRIN

WEATHER ROUNDUP FOR INDIANA
NATIONAL WEATHER SERVICE INDIANAPOLIS IN
1200 AM EDT THU OCT 30 2014

NOTE: "FAIR" INDICATES FEW OR NO CLOUDS BELOW 12,000 FEET WITH NO
SIGNIFICANT WEATHER AND/OR OBSTRUCTIONS TO VISIBILITY.

* - STATION DOES NOT REPORT WEATHER SUCH AS PRECIPITATION OR FOG.

+ - STATION NOT QUALITY CONTROLLED BY THE NATIONAL WEATHER SERVICE.
    USE DATA WITH CAUTION...ESPECIALLY DEWPOINT AND RELATIVE
    HUMIDITY OBSERVATIONS.

INZ001>003-010>013-019-020-300500-
NORTHWEST INDIANA

CITY           SKY/WX    TMP DP  RH WIND       PRES   REMARKS
GARY /AIRPORT/ MOCLDY    46  33  59 SW3       30.14F
KNOX *+        CLOUDY    44  34  69 W3        30.14S
LA PORTE +     CLOUDY    45  37  72 CALM      30.14S
MICHIGAN CITY+ CLOUDY    45  34  65 S5        30.13F
MONTICELLO +   CLOUDY    43  37  78 W3        30.15S
RENSSELAER +   CLOUDY    43  36  75 CALM      30.15S
VALPARAISO     CLOUDY    44  35  70 W3        30.14S

$$

LMZ046-743>745-300500-
SOUTHERN LAKE MICHIGAN

STATION/POSITION TIME  TEMP WIND        PRES
                       AIR  DIR/SP/G
                 (UTC) (F)  (DEG/KT/KT) (MB)
MICHIGAN CITY    0400   48  290/  6/ 12   N/A

$$

INZ004-005-014>016-021>024-300500-
NORTH CENTRAL INDIANA

CITY           SKY/WX    TMP DP  RH WIND       PRES   REMARKS
GOSHEN         CLOUDY    43  38  82 SW3       30.12S
LOGANSPORT +   CLOUDY    41  34  75 W3        30.16R
PERU/GRISSOM   CLOUDY    42  40  90 W5        30.14S
ROCHESTER +    CLOUDY    45  36  70 W3        30.14S
SOUTH BEND     CLOUDY    45  36  70 CALM      30.13F
WARSAW +       CLOUDY    41  36  81 W3        30.13S

$$

INZ006>009-017-018-025>027-300500-
NORTHEAST INDIANA

CITY           SKY/WX    TMP DP  RH WIND       PRES   REMARKS
ANGOLA *+      CLOUDY    43  37  81 W3        30.11S
AUBURN +       CLOUDY    43  36  75 CALM      30.13S
FORT WAYNE     CLOUDY    44  35  70 W6        30.13F
HUNTINGTON +   CLOUDY   N/A N/A N/A CALM      30.13S

$$

INZ028-029-035-036-043>045-051>053-300500-
WEST CENTRAL INDIANA

CITY           SKY/WX    TMP DP  RH WIND       PRES   REMARKS
GREENCASTLE +  CLOUDY    43  32  65 N5        30.16F
LAFAYETTE      CLOUDY    43  37  79 CALM      30.16S
TERRE HAUTE    CLEAR     41  35  79 CALM      30.16F

$$

INZ030>032-037>040-046>048-054>057-064-065-300500-
CENTRAL INDIANA

CITY           SKY/WX    TMP DP  RH WIND       PRES   REMARKS
CP ATTERBURY + CLOUDY    45  32  61 NW6       30.16S
FRANKFORT +    CLOUDY    43  37  77 W5        30.16S
INDIANAPOLIS   CLOUDY    43  32  65 NW6       30.14F
-EAGLE CREEK   CLOUDY    45  32  60 NW6       30.14F
KOKOMO *+      CLOUDY    43  34  70 W5        30.15S
MARION +       CLOUDY    42  35  76 CALM      30.14F
MT COMFORT *+  CLOUDY    43  28  56 NW3       30.14F
SHELBYVILLE    CLOUDY    46  35  65 NW6       30.14S
ZIONSVILLE +   CLOUDY    43  33  68 CALM      30.15S

$$

INZ033-034-041-042-049-050-058-059-300500-
EAST CENTRAL INDIANA

CITY           SKY/WX    TMP DP  RH WIND       PRES   REMARKS
MUNCIE         CLOUDY    44  35  70 NW6       30.13S

$$

INZ060-061-067>069-081>083-085>088-300500-
SOUTHWEST INDIANA

CITY           SKY/WX    TMP DP  RH WIND       PRES   REMARKS
EVANSVILLE     CLEAR     46  36  68 N5        30.17R
HUNTINGBURG *+ CLEAR     43  34  70 NE5       30.16S
WASHINGTON +   CLEAR     40  37  88 NW5       30.16S

$$

INZ062-063-066-070>080-084-089>092-300500-
SOUTH CENTRAL AND SOUTHEAST INDIANA

CITY           SKY/WX    TMP DP  RH WIND       PRES   REMARKS
BLOOMINGTON    CLOUDY    45  35  68 N5        30.15F

$$




USA.gov is the U.S. government's official web portal to all federal, state and local government web resources and services.